Theta_e
314 314 314 314 314 315 316 317 318 319 320 320 320 319 319 319 319 319 318 319 320 320 321 321 319 317 317 317 315 315 315 315 315 314 314 314 314 314 314 314 315 314 314 314 315 316 316 316 316 317 317 317 318 319 319 318 318 321 334 339 327 321 317 317 320 317 317 318 313 311 311 313 312 308 307 308 306 306 306 305 306 306 306 305 305 304 303 302
313 313 313 313 314 314 315 315 317 318 318 319 320 319 319 319 319 319 319 319 319 319 320 321 320 318 317 317 316 316 315 315 314 314 314 314 314 314 315 315 315 316 316 315 315 315 316 315 315 316 317 318 318 319 318 318 317 322 334 332 326 326 317 314 316 313 313 315 312 311 311 312 313 308 308 309 304 303 305 302 302 304 303 303 303 302 302 301
313 312 313 313 313 313 314 314 315 316 317 318 318 319 319 318 318 318 318 318 319 319 320 321 321 319 318 317 317 317 316 314 314 314 314 314 314 314 315 315 316 317 317 317 316 315 314 314 314 316 317 318 318 319 318 318 317 318 326 328 327 324 315 311 313 312 314 314 312 310 310 311 311 309 309 308 303 303 304 302 301 301 301 301 301 301 301 301
312 312 312 312 312 312 313 313 314 315 315 316 317 317 318 318 317 317 317 318 318 319 319 320 321 320 319 318 317 317 318 317 315 314 314 314 314 315 315 315 315 317 318 318 316 315 314 314 314 314 315 317 317 318 317 317 316 314 320 326 321 314 313 314 313 313 313 314 313 311 310 310 310 310 308 306 307 306 303 304 306 304 302 301 300 300 301 301
311 311 311 311 311 311 312 312 313 313 314 315 315 316 317 317 317 317 317 316 317 318 319 320 320 321 319 319 319 318 319 320 317 314 314 315 315 315 315 315 315 317 318 318 316 316 316 314 314 315 315 316 316 318 318 315 315 314 314 317 315 311 314 314 312 314 313 313 313 310 311 311 309 309 308 308 311 310 306 307 308 307 306 303 301 300 300 300
311 311 311 311 311 311 311 311 311 312 312 313 314 315 315 316 317 317 317 316 316 317 319 319 320 321 320 318 319 320 320 320 318 314 314 314 315 315 316 315 315 317 318 317 317 318 318 315 315 315 315 315 315 316 317 314 315 316 313 311 312 312 314 314 313 313 313 312 312 310 311 310 308 308 308 308 310 309 309 308 307 306 304 302 301 300 300 300
311 311 311 310 310 310 310 310 310 311 311 312 312 313 314 315 316 317 316 316 316 316 318 319 320 320 320 318 318 320 320 318 317 314 314 314 315 315 315 316 315 316 318 317 318 319 319 317 315 313 314 316 315 314 315 314 313 316 315 311 312 312 313 314 313 313 312 312 311 311 311 309 309 310 307 306 307 307 308 308 306 304 302 301 301 300 300 301
311 310 310 310 310 310 310 310 310 310 310 311 311 312 313 314 315 316 316 316 316 315 317 319 319 320 320 319 317 318 320 318 315 314 314 314 315 315 316 316 315 316 318 317 317 318 318 317 314 313 314 315 315 314 313 314 313 316 316 312 312 312 313 313 312 312 312 311 311 311 310 309 309 309 306 304 305 306 306 306 304 302 301 300 301 300 300 300
311 311 310 310 310 310 310 310 310 310 310 310 311 311 312 312 313 315 315 316 316 315 316 318 320 320 320 319 317 318 319 319 316 314 314 314 315 315 315 316 315 316 317 318 316 317 317 315 313 313 314 314 314 313 312 314 313 313 315 312 311 312 311 312 311 311 311 311 311 311 310 308 307 308 306 303 303 304 304 304 303 301 301 300 301 300 300 300
311 310 310 310 310 310 310 310 310 310 310 310 310 310 311 311 312 313 314 315 315 315 316 318 320 319 319 319 318 319 320 320 318 315 314 314 314 315 315 316 315 315 317 317 316 317 316 315 313 313 314 314 313 312 311 313 314 313 313 312 311 312 311 311 311 311 311 311 311 312 312 307 305 309 309 302 301 303 303 302 301 301 301 300 300 300 299 299
310 310 310 310 310 310 310 310 310 310 310 310 310 310 310 311 311 312 313 314 315 315 316 318 319 319 319 318 318 319 319 319 319 317 315 314 314 315 315 315 315 315 316 317 316 316 316 315 314 312 315 315 313 312 312 312 313 312 312 313 313 311 311 311 310 310 311 311 311 312 311 305 304 310 311 303 300 302 302 301 300 300 300 300 300 299 298 297
310 310 310 310 310 309 310 310 310 310 310 310 310 310 310 310 311 311 312 313 314 316 315 317 319 319 318 317 318 318 319 319 318 317 315 314 314 315 315 315 316 315 316 317 316 316 315 315 314 313 313 313 313 312 313 313 312 312 311 315 315 314 315 311 309 310 310 311 310 311 312 309 308 309 309 304 301 301 301 300 299 299 299 299 298 297 296 296
310 310 310 310 309 309 309 310 310 310 310 310 310 310 310 310 310 311 312 312 314 315 315 317 318 319 318 317 318 318 319 319 318 316 314 314 314 315 315 315 315 315 315 316 316 316 315 315 314 313 312 312 313 312 313 311 310 313 310 312 318 319 320 311 308 310 309 311 310 310 314 316 314 308 305 304 301 300 300 299 299 298 298 297 296 295 295 295
310 310 310 309 309 309 309 309 310 310 310 310 310 310 310 310 310 311 312 313 314 315 316 318 318 318 317 317 318 318 319 319 317 316 314 314 314 314 315 315 316 315 315 315 316 317 316 316 314 314 313 312 312 310 314 315 314 315 310 317 321 317 324 317 308 310 311 311 310 310 314 315 316 309 303 303 301 301 300 298 298 298 298 297 296 295 295 295
310 310 310 309 309 309 309 309 309 309 310 310 310 310 310 310 310 311 312 314 315 316 317 317 317 317 318 318 318 318 319 318 317 316 314 314 314 315 315 315 316 314 315 315 315 317 316 315 315 314 313 311 314 316 321 323 323 320 313 324 325 315 324 322 307 308 312 312 310 311 315 315 315 308 303 302 301 301 300 298 298 298 298 297 296 295 295 295
309 310 309 309 309 309 309 309 309 309 309 310 310 310 310 310 311 311 313 314 314 316 317 317 317 318 318 318 318 317 318 317 317 316 315 314 314 315 315 315 315 314 314 314 315 317 315 316 315 313 312 311 319 327 326 324 329 328 317 321 326 317 318 319 309 307 309 311 311 311 315 316 313 305 301 301 300 300 299 298 298 298 298 298 296 295 295 295
309 309 309 309 309 309 309 309 309 309 309 310 310 310 310 310 311 312 312 313 315 316 316 317 319 319 319 318 317 317 317 317 316 316 315 315 315 316 315 315 315 313 314 315 315 316 315 315 313 313 313 310 318 327 325 325 330 330 322 319 323 319 314 315 314 309 307 310 312 312 312 313 312 303 299 300 299 299 299 298 298 298 298 298 297 296 295 295
309 309 309 309 309 309 309 308 308 309 309 309 309 310 310 310 312 312 312 314 316 317 317 319 319 318 317 317 317 317 317 317 316 316 316 316 316 315 315 315 314 313 315 314 314 316 315 313 315 320 320 314 319 325 324 327 326 320 320 318 317 316 312 313 314 310 309 312 313 313 313 312 311 305 300 300 299 299 299 299 298 298 298 298 297 296 295 295
309 309 309 309 309 309 308 308 308 308 309 309 309 309 310 311 311 312 314 316 316 316 318 320 319 317 315 316 317 316 317 317 317 317 317 317 316 315 315 314 314 314 314 317 317 315 314 314 317 323 326 323 321 320 320 326 322 314 315 315 314 314 312 311 312 309 308 312 312 311 312 311 311 309 302 300 300 299 299 299 298 297 297 297 297 296 296 295
309 309 309 309 309 308 308 308 308 308 308 309 308 309 311 312 313 315 315 316 316 314 314 316 317 317 315 315 316 316 317 317 317 317 317 317 316 314 314 312 314 314 314 321 320 313 314 321 323 323 325 327 324 318 316 319 317 311 312 313 312 312 311 309 311 309 306 310 313 311 311 311 310 311 305 300 300 299 298 299 298 298 297 297 297 296 296 296
310 309 309 309 309 309 308 308 308 308 308 308 308 310 312 312 313 315 313 314 314 313 313 313 314 316 315 315 316 316 317 316 316 316 316 316 315 314 314 312 314 317 314 314 315 313 316 321 326 328 324 321 321 317 313 313 312 310 312 313 312 312 311 309 310 309 305 308 313 311 311 310 310 310 306 301 300 299 299 299 298 298 297 297 297 297 296 296
310 309 309 308 309 309 308 308 308 308 308 308 308 311 313 312 313 313 312 314 313 312 313 313 313 314 314 314 315 316 316 316 315 315 315 314 314 313 313 313 317 321 315 310 316 322 322 323 328 324 314 311 313 313 311 311 311 312 312 313 314 313 313 312 311 309 306 308 312 312 310 309 309 309 305 301 300 300 300 300 300 299 298 297 297 297 297 296
310 310 309 308 309 308 308 308 307 307 308 308 309 312 313 312 313 313 313 315 315 314 312 313 314 314 314 315 315 316 316 317 316 315 315 313 313 313 312 313 318 320 316 315 322 325 323 328 324 311 306 310 313 311 311 311 311 313 313 313 315 313 313 316 314 311 310 309 311 311 308 307 307 308 307 303 301 302 301 301 301 300 299 298 298 298 297 296
310 309 309 309 308 308 308 308 308 308 308 307 310 313 313 313 313 313 314 314 316 316 312 314 315 314 317 315 315 316 315 316 315 314 314 312 312 312 312 313 315 318 317 318 323 323 323 321 310 305 309 313 314 313 312 312 314 317 315 313 315 314 313 314 313 311 311 312 311 308 308 310 309 308 308 305 301 301 301 300 300 300 299 298 298 298 297 296
310 310 310 309 309 309 308 308 308 308 308 308 312 314 313 313 312 313 314 313 315 316 314 315 315 316 317 315 315 314 313 314 314 313 313 312 312 312 312 311 314 319 320 317 317 319 320 311 305 309 313 312 313 315 316 314 316 321 319 315 314 315 314 313 312 310 312 316 312 308 312 318 314 309 309 306 303 302 300 299 299 299 299 298 297 297 296 296
310 310 310 309 310 309 308 309 308 309 309 309 312 313 312 313 312 313 316 316 316 316 316 316 317 317 316 315 314 312 315 316 312 313 312 311 312 312 313 312 311 317 317 313 313 317 315 307 308 316 315 314 314 315 318 316 315 319 318 315 315 314 312 312 310 310 315 316 310 308 312 315 312 311 311 309 307 304 301 299 299 299 298 297 297 297 296 296
310 311 310 310 310 309 309 309 309 309 310 311 314 313 312 313 312 312 313 313 314 317 320 317 316 318 316 315 314 313 319 317 311 311 311 311 312 310 315 315 311 312 309 310 316 318 312 308 311 314 315 316 315 317 319 314 316 321 314 312 315 312 311 311 308 309 312 311 308 308 309 309 309 310 309 308 309 307 303 301 299 298 298 298 297 297 296 297
310 310 311 311 310 310 309 309 309 310 310 312 313 313 313 313 312 312 311 309 312 318 321 318 315 316 315 314 313 313 314 313 312 312 309 311 311 310 314 315 316 316 308 311 322 317 311 314 315 314 314 314 316 322 319 313 318 320 310 308 310 308 309 308 306 308 309 307 309 309 307 309 311 310 307 304 306 308 306 304 301 297 297 298 297 296 296 297
310 311 311 311 311 311 310 309 309 309 310 311 312 313 313 312 311 312 311 308 313 319 318 317 316 315 313 313 313 312 311 311 312 312 309 310 311 311 312 311 312 315 308 309 321 317 310 312 312 314 317 315 318 319 313 314 316 311 307 309 311 310 310 308 307 309 309 308 311 310 308 311 316 314 309 305 306 308 307 305 302 299 297 297 297 296 296 296
310 312 312 311 312 311 310 310 309 309 310 310 313 314 312 312 314 311 309 310 315 318 314 313 315 313 312 313 313 311 311 311 310 309 308 309 309 309 310 309 308 313 315 314 318 315 309 306 306 311 314 312 314 309 304 308 308 305 309 314 315 313 311 309 309 309 311 313 315 312 309 311 315 315 312 312 313 312 310 308 305 300 297 297 297 296 296 296
310 312 312 312 312 311 311 310 309 309 309 310 314 313 311 316 319 315 312 311 312 315 314 314 315 313 314 318 318 313 310 311 308 308 309 308 309 309 309 311 310 317 325 322 318 315 310 309 308 309 307 306 311 310 304 304 303 306 314 315 316 317 314 313 312 310 313 320 317 309 306 309 312 314 313 313 311 308 309 312 310 304 298 297 297 296 296 296
308 310 311 312 312 312 311 310 310 309 309 311 313 312 312 315 316 315 317 315 311 315 318 318 316 315 315 317 319 316 313 313 308 308 313 312 312 312 313 318 318 319 325 323 321 318 315 314 310 307 305 306 314 315 309 308 309 310 314 316 318 320 321 320 317 314 317 319 311 303 305 309 310 312 311 310 309 305 304 305 307 304 298 297 297 297 296 295
307 310 311 312 311 312 311 310 311 309 310 312 311 312 314 314 313 313 316 316 312 314 317 319 317 317 317 317 321 318 314 316 312 308 313 312 312 315 316 319 318 316 318 319 320 320 320 317 310 309 309 307 312 315 314 315 313 309 312 318 321 321 324 325 321 318 318 318 307 300 305 311 310 311 310 309 310 306 302 301 301 301 299 299 299 297 296 295
308 310 312 311 310 312 311 310 310 310 311 311 309 313 315 314 314 314 315 315 313 314 317 318 316 315 316 319 323 320 315 317 314 309 313 312 313 318 317 314 313 316 319 318 318 320 320 319 315 314 312 309 309 312 317 320 312 308 311 316 319 322 324 325 324 322 320 318 309 303 308 315 314 313 310 306 302 299 299 299 299 299 299 301 300 297 295 294
309 311 312 311 310 311 311 310 310 310 312 310 309 314 314 311 314 316 316 316 316 317 317 317 317 316 317 320 321 318 315 316 315 312 314 315 316 321 322 317 314 319 322 318 320 319 317 319 316 308 306 307 308 306 308 317 315 307 308 312 315 319 321 319 319 317 314 313 310 306 310 313 310 309 307 301 296 295 296 295 295 297 298 299 298 296 294 294
309 311 312 311 309 309 311 311 310 310 311 308 309 313 312 311 316 317 316 316 317 320 318 317 319 319 319 323 323 318 313 314 315 314 315 316 317 318 321 321 314 315 317 316 320 319 316 319 312 304 304 304 303 303 303 311 316 309 308 313 312 310 314 317 315 310 307 311 313 311 311 310 310 310 306 302 299 298 297 294 293 294 296 297 296 295 294 294
309 309 311 311 308 308 311 312 312 311 309 307 309 312 311 311 315 317 315 313 315 319 319 317 318 319 321 323 323 320 315 314 315 316 318 317 316 315 318 320 312 311 314 314 318 318 315 317 310 306 310 303 297 300 301 302 308 312 313 312 307 305 309 314 315 311 308 312 314 312 311 311 314 313 305 302 301 301 300 296 293 292 293 294 294 294 294 294
309 308 309 310 308 308 310 312 314 313 308 306 309 313 314 311 309 310 313 312 313 318 318 316 315 317 321 322 323 321 316 316 316 317 319 318 315 316 318 318 312 309 312 311 314 317 314 315 313 304 306 303 298 303 307 301 301 307 309 305 306 310 312 311 312 314 314 314 314 315 313 313 315 315 311 307 305 305 303 296 292 293 292 292 293 293 293 293
308 308 309 309 307 307 309 312 315 313 308 307 309 312 314 313 308 308 311 312 313 317 318 316 312 313 318 321 322 320 315 316 317 316 317 317 315 314 313 315 314 308 307 309 314 316 312 315 316 304 300 303 303 306 313 308 300 300 302 301 304 310 312 311 311 313 316 316 315 317 316 315 316 318 318 314 309 308 305 296 293 294 292 292 293 293 293 293
309 310 310 309 306 307 309 312 314 311 308 309 310 309 310 312 309 309 310 311 313 315 317 319 315 313 316 316 318 320 316 316 317 315 316 315 315 314 310 313 316 309 305 308 313 315 312 314 316 307 301 305 307 308 312 312 306 304 304 304 303 304 307 310 308 309 313 315 314 315 315 316 315 316 318 315 311 309 306 299 294 293 292 293 293 293 293 293
310 311 311 308 306 308 310 312 312 309 310 311 310 309 309 310 310 310 310 309 311 312 314 319 319 316 315 314 315 318 317 317 316 314 315 315 314 314 311 311 314 311 308 310 313 314 314 315 315 311 306 307 310 307 306 309 310 308 307 307 306 305 307 310 309 308 309 311 313 315 315 314 312 313 314 314 312 309 304 298 295 293 292 293 293 293 293 293
310 310 310 308 308 310 311 312 311 310 311 311 310 310 309 309 310 311 310 309 310 310 311 315 318 315 315 315 317 317 317 319 317 313 315 315 312 313 312 310 309 309 310 314 313 310 312 315 314 313 311 308 305 303 300 302 305 306 306 307 306 306 307 311 313 311 308 308 310 311 313 313 310 311 312 311 309 305 299 296 295 294 293 293 293 293 293 293
310 310 309 308 309 311 311 312 312 311 311 310 310 310 308 309 309 310 311 311 310 311 311 312 314 313 313 314 315 316 316 318 317 314 316 317 313 311 311 309 308 309 311 314 312 308 310 314 313 314 315 309 303 302 301 300 302 304 306 305 305 306 307 309 312 312 311 310 309 309 312 313 309 307 306 303 300 298 295 294 295 294 293 293 293 292 293 292
310 310 310 308 310 312 311 311 311 311 311 310 310 310 309 309 309 310 311 311 312 314 313 312 311 311 313 314 313 314 314 314 315 314 315 317 315 311 309 309 309 310 311 312 313 310 311 316 314 313 316 314 308 307 307 303 302 304 306 305 304 305 307 308 309 309 311 310 309 310 313 313 309 304 302 299 297 297 294 293 294 294 293 293 292 292 292 292
310 310 311 309 310 312 310 310 310 310 310 310 310 310 310 309 309 309 310 309 310 312 313 313 312 310 312 314 312 313 314 312 313 314 314 315 314 308 306 308 308 309 310 310 310 310 313 317 315 313 315 314 312 313 314 310 303 302 304 304 303 304 306 307 308 308 309 310 309 310 312 313 310 306 303 300 299 299 295 292 293 293 293 293 292 292 292 292
310 311 311 309 310 310 310 310 309 309 310 310 309 309 309 310 309 308 309 309 308 310 311 313 312 311 313 314 312 313 314 311 313 315 314 317 317 308 303 304 306 306 307 307 307 310 316 317 313 313 314 312 311 312 313 311 307 306 306 304 303 304 305 306 308 309 310 310 309 310 310 311 311 309 308 305 302 299 297 295 293 291 293 293 292 292 292 292
311 311 311 310 310 309 309 310 309 308 309 309 309 310 310 309 309 308 308 309 309 309 310 311 311 312 314 314 312 313 313 312 312 313 313 317 318 309 301 300 302 303 304 305 306 311 318 315 311 312 312 311 312 311 311 312 311 310 309 305 303 303 304 305 307 308 310 311 310 310 310 311 310 310 310 310 307 301 297 295 293 292 293 293 292 292 291 291
311 312 311 310 311 310 310 310 310 309 308 308 308 310 310 309 309 309 309 309 309 309 310 311 312 312 312 312 313 312 312 313 313 311 312 315 315 311 306 302 300 301 304 304 304 309 315 314 312 312 311 310 311 311 311 312 311 310 310 309 306 303 303 304 305 307 308 310 310 311 310 311 311 310 309 310 310 306 300 297 295 295 294 293 292 291 290 291
312 312 311 310 310 310 310 310 310 309 309 308 308 308 308 309 309 308 309 310 309 309 309 309 310 311 311 311 312 312 312 312 312 312 312 313 313 312 312 310 303 299 302 305 304 305 310 312 312 312 311 311 310 310 310 310 310 310 310 310 308 305 303 303 304 305 306 308 309 309 310 310 309 309 309 308 309 307 303 299 296 294 293 292 291 291 290 291
312 312 312 311 310 310 310 309 309 310 309 309 308 308 308 308 308 308 309 310 310 310 309 309 309 310 311 311 311 311 311 311 311 312 312 313 313 312 313 314 310 301 300 304 305 303 307 312 312 311 311 312 310 310 310 310 310 310 309 310 310 308 306 304 304 304 305 306 306 306 307 308 308 308 308 307 306 305 302 298 294 293 293 292 291 290 290 291
313 313 312 311 311 311 310 309 309 310 310 309 309 309 308 308 308 307 308 308 309 310 310 309 309 309 310 311 311 311 311 310 311 311 311 312 312 312 312 312 311 307 302 303 304 304 306 310 312 311 311 312 311 311 310 309 308 308 309 309 308 309 309 307 306 306 306 306 306 306 307 307 307 307 307 307 306 305 303 298 293 292 293 292 291 290 290 291
314 313 313 312 312 312 311 311 310 310 311 310 309 309 309 309 308 308 308 307 307 308 309 309 310 309 309 310 311 310 310 310 310 310 310 310 310 310 311 308 307 308 305 302 303 305 306 309 310 311 311 311 310 309 308 308 309 310 310 310 309 308 308 308 308 308 307 307 308 308 308 308 308 308 308 308 306 305 303 299 295 293 292 291 291 291 291 291
Wind_Speed
11 11 12 12 12 13 13 13 14 14 15 15 15 16 16 16 16 17 17 17 18 18 17 16 12 7 5 4 6 7 6 6 6 6 7 10 12 11 12 12 12 12 11 10 8 6 4 3 3 4 3 1 3 2 3 4 3 2 3 4 2 3 3 4 7 7 5 4 6 8 9 9 6 7 13 10 11 16 13 10 9 10 14 19 20 21 23 19
11 11 11 12 12 13 13 13 13 13 14 14 15 15 16 16 16 16 16 16 16 16 16 15 13 8 5 3 3 4 5 5 5 5 7 9 10 10 11 11 11 12 12 11 9 7 5 5 5 4 2 2 3 3 2 3 4 3 3 4 2 5 4 3 7 9 5 6 7 8 12 12 10 15 18 8 6 13 12 10 12 17 19 20 22 23 21 19
10 11 11 12 12 13 13 13 13 13 13 13 14 14 15 16 16 16 16 16 15 15 15 14 13 8 5 2 1 1 2 3 4 5 6 7 8 9 10 10 10 11 12 12 11 10 8 8 8 4 2 3 3 3 3 4 3 1 4 3 5 6 3 2 6 8 5 8 8 10 12 10 14 19 16 11 9 7 8 13 15 18 24 24 24 23 21 20
10 11 11 12 12 12 13 13 13 12 13 13 13 13 14 15 16 16 16 16 15 14 14 13 12 9 5 2 1 2 2 1 2 3 4 5 7 7 9 9 10 10 11 11 10 10 9 10 8 3 2 3 4 3 3 5 4 0 3 3 6 5 3 4 6 6 6 9 9 11 10 8 17 18 15 17 10 4 12 23 20 21 29 28 25 23 20 18
9 10 11 12 12 12 13 13 13 12 12 12 12 13 13 14 15 16 16 16 15 14 13 12 12 10 6 2 1 1 1 1 3 4 3 3 5 6 8 8 8 9 10 11 10 9 9 11 8 3 3 4 6 4 2 6 5 1 1 3 7 8 4 6 9 6 8 10 9 11 9 11 18 14 18 23 11 5 16 26 22 22 30 28 27 24 19 18
9 10 10 11 11 12 12 12 13 12 12 12 12 12 12 13 14 15 15 15 15 14 13 12 11 10 8 3 1 2 1 1 4 5 3 2 4 5 6 7 7 7 9 9 9 10 10 12 9 4 4 4 5 3 3 7 6 2 2 1 7 7 4 8 11 8 10 11 11 11 8 12 15 8 19 25 11 6 12 22 21 22 27 27 26 23 20 18
9 10 10 11 11 12 12 12 12 12 12 12 12 12 12 12 13 14 14 14 15 15 12 11 10 9 8 5 3 4 4 3 4 5 3 1 2 3 5 6 6 6 8 7 7 11 11 13 11 6 4 3 4 4 5 9 6 1 1 0 4 4 4 9 11 10 11 11 11 11 8 12 13 7 15 19 11 6 9 18 22 25 28 25 24 22 20 18
10 10 10 11 11 12 12 12 12 12 12 12 11 11 12 12 12 13 14 14 14 15 13 11 9 9 8 6 5 6 6 5 4 5 4 2 1 2 4 5 5 6 8 7 7 12 11 12 11 7 3 1 2 4 6 8 5 2 1 1 3 2 4 8 9 10 11 8 9 9 7 9 11 9 11 12 9 8 14 20 25 28 28 25 24 22 19 18
11 11 11 11 12 12 12 12 12 12 12 12 11 11 12 12 11 12 13 13 14 14 13 10 9 8 8 6 5 5 6 6 6 5 5 4 3 2 3 4 4 4 7 7 5 9 10 10 9 5 1 1 2 4 6 5 3 1 2 4 1 1 2 7 10 11 10 8 8 7 3 3 8 7 5 9 12 15 20 24 29 29 28 25 23 21 19 18
12 12 12 13 13 13 13 13 13 13 13 12 12 11 11 12 12 12 13 13 13 13 12 10 8 8 8 5 4 3 5 6 8 7 6 6 4 2 3 3 4 4 6 6 4 7 10 9 8 6 2 1 3 4 4 2 3 4 4 7 6 5 4 6 11 12 11 8 8 6 3 2 9 5 3 12 18 22 26 28 29 28 27 25 23 22 19 17
13 13 13 14 14 14 14 14 14 14 13 13 13 12 11 11 11 12 12 13 13 13 12 10 9 9 8 6 6 5 4 6 8 8 7 7 5 3 3 3 3 3 5 6 3 4 8 9 8 6 1 1 3 3 2 2 4 6 7 8 8 8 7 6 8 12 11 5 6 5 1 1 5 3 6 18 25 27 30 30 29 28 27 25 23 22 20 18
14 14 14 14 15 15 15 15 15 15 15 14 13 12 12 12 11 12 12 12 13 12 12 10 8 9 9 8 10 9 6 6 7 8 8 7 6 5 4 4 3 4 5 5 2 3 6 7 8 6 0 1 1 2 2 4 6 6 5 6 7 9 7 5 3 9 8 4 7 5 2 2 5 5 8 22 30 29 30 30 29 28 27 26 24 23 21 19
15 15 15 15 16 16 16 16 16 16 15 15 14 13 13 12 12 11 12 13 12 12 11 9 8 10 9 8 10 9 8 8 8 8 9 9 8 6 6 5 5 4 5 5 2 2 5 5 6 5 1 1 1 1 2 5 5 4 3 3 4 8 6 4 1 4 4 5 10 6 3 6 8 7 10 25 33 31 30 30 31 29 27 26 25 24 22 20
16 16 16 16 16 16 17 16 16 16 16 16 15 14 13 13 13 12 13 12 11 11 9 7 8 9 8 8 9 9 10 9 9 9 10 10 9 8 7 6 6 6 5 5 2 2 4 4 5 3 2 2 1 1 3 5 4 2 2 2 3 3 5 6 2 4 3 4 10 7 4 7 8 8 16 27 34 34 32 31 31 31 30 28 26 25 23 21
17 17 16 16 16 17 17 17 17 17 16 16 16 15 14 14 13 12 11 10 11 10 7 7 9 9 8 9 9 9 10 10 10 11 11 11 10 9 8 7 7 6 5 5 4 2 4 2 3 2 1 2 1 2 3 4 4 3 2 3 3 0 5 9 4 6 4 2 7 7 4 8 7 8 21 30 33 35 32 31 32 32 32 30 27 26 23 21
18 17 17 17 17 17 17 17 17 17 17 16 16 15 14 15 15 11 9 10 10 8 7 9 9 7 6 7 8 9 11 11 10 11 12 11 11 10 8 8 7 7 5 5 5 2 3 2 3 3 2 2 2 4 4 4 4 3 1 2 4 2 4 7 4 4 4 0 3 5 5 7 5 5 21 30 33 33 28 28 32 33 34 32 29 27 25 23
19 19 18 17 17 17 18 18 18 18 17 17 17 15 14 15 13 9 10 11 9 7 8 9 7 6 8 8 9 10 11 10 10 11 12 11 11 10 9 9 7 7 6 5 5 2 2 1 1 1 3 3 3 4 4 4 3 4 2 1 4 4 3 5 5 4 1 1 4 3 5 10 5 5 19 28 32 31 27 28 32 33 34 33 31 29 27 26
21 20 19 18 18 18 18 18 18 18 18 18 17 17 16 12 9 10 12 9 7 6 8 8 6 2 7 10 9 8 8 9 11 11 11 10 10 10 10 9 8 7 4 3 5 2 2 1 2 1 3 4 3 5 1 3 3 3 3 2 4 3 4 5 6 4 1 1 5 3 6 14 8 6 17 27 31 31 29 29 31 32 33 34 33 32 30 28
21 21 20 20 19 19 18 18 18 18 19 18 17 18 14 8 8 10 9 7 6 5 5 7 9 4 5 8 9 8 8 9 11 11 11 10 10 11 11 8 8 7 3 2 3 0 1 2 2 1 2 4 2 5 6 7 7 5 5 4 4 5 6 6 6 5 1 3 8 7 9 13 12 6 13 24 29 30 28 25 26 29 32 34 34 34 33 31
23 21 21 20 20 19 19 18 18 18 19 18 17 16 10 6 6 5 4 8 11 14 13 12 13 13 11 9 10 11 10 10 12 12 13 13 12 11 10 8 6 4 2 2 2 0 3 2 1 5 6 7 7 6 6 5 6 4 3 4 5 5 7 6 5 5 1 2 8 9 9 12 14 11 11 22 26 24 23 22 25 30 33 36 37 36 35 33
24 23 22 21 20 19 19 19 17 16 17 17 16 13 8 5 4 4 7 10 13 16 18 17 18 20 18 14 12 11 10 10 12 13 13 13 12 9 7 6 3 2 2 2 2 1 4 1 5 8 9 7 6 6 5 4 4 2 3 4 5 5 8 9 4 5 1 3 7 6 7 10 13 13 10 17 18 20 27 27 29 33 35 37 38 38 37 33
25 24 23 22 21 20 19 18 17 15 15 14 13 9 6 6 4 6 8 10 13 16 18 20 21 24 22 19 17 14 11 9 9 12 13 12 12 9 7 5 4 3 1 3 2 3 3 3 9 9 6 4 3 5 6 3 4 2 2 1 5 3 4 8 4 5 2 2 6 7 7 9 12 16 10 15 18 24 36 39 37 39 38 39 39 39 39 34
27 26 25 23 22 20 18 17 17 15 13 12 10 7 7 7 6 8 8 8 13 14 15 17 19 20 18 16 15 12 11 10 8 12 14 13 12 10 7 5 4 2 0 3 5 1 1 6 7 4 7 8 3 3 5 2 1 3 3 2 5 3 1 4 4 5 3 2 6 9 9 7 9 17 13 16 25 28 35 40 39 39 39 41 43 43 43 39
28 27 26 25 23 20 18 17 16 14 13 11 9 7 7 8 7 10 8 6 8 8 11 13 12 12 12 10 9 9 10 9 7 10 15 14 11 8 6 5 4 1 3 5 7 5 6 5 3 6 6 7 4 0 3 2 3 3 5 6 6 5 5 6 3 5 5 4 4 7 10 6 6 14 13 7 16 22 26 30 32 36 37 37 39 42 43 42
29 28 27 25 23 20 17 17 15 14 12 9 8 7 7 7 7 9 7 3 5 6 6 8 7 7 9 7 6 7 6 7 8 9 13 15 12 6 3 5 4 3 5 4 5 5 7 3 5 6 3 4 5 2 4 6 2 5 5 9 9 8 7 6 5 6 5 4 3 5 6 7 2 7 11 3 4 12 16 18 26 34 34 33 38 41 43 42
29 28 27 25 23 20 16 15 14 12 10 8 8 8 6 6 5 7 6 3 3 5 3 5 5 4 7 7 6 6 2 4 9 11 12 13 13 8 3 3 2 3 5 5 3 3 3 1 3 6 5 4 5 4 5 7 4 3 4 6 7 5 3 4 3 3 2 3 3 3 1 9 3 4 11 6 5 11 10 11 21 29 31 36 42 43 43 43
28 27 26 24 22 19 15 13 13 11 9 7 7 7 6 5 3 5 5 3 4 4 4 4 6 6 7 7 10 8 1 2 6 10 13 12 12 10 5 3 1 2 4 4 1 3 2 2 4 5 5 5 4 5 6 8 7 3 4 4 5 3 2 3 1 1 3 3 4 3 4 8 7 6 10 6 7 12 11 12 16 23 31 39 43 42 43 45
26 25 24 22 21 19 16 15 14 12 10 8 7 7 6 3 2 2 3 2 3 3 4 3 5 7 7 9 13 8 1 3 5 6 12 11 10 8 5 6 6 4 3 5 4 5 3 4 4 5 4 4 6 6 7 10 4 5 4 5 5 4 3 2 2 3 2 3 7 5 7 5 9 5 3 2 5 12 14 16 15 20 31 39 41 41 42 45
25 24 22 21 20 19 17 16 15 12 11 10 8 8 5 2 1 3 3 3 3 2 3 4 5 6 6 7 10 8 2 2 2 5 10 9 9 6 2 5 6 4 2 3 5 5 1 3 6 7 5 6 5 2 6 9 4 3 5 5 5 5 4 3 2 1 2 1 9 7 7 4 8 4 2 2 3 10 14 14 13 19 31 36 36 38 41 43
22 21 21 20 19 18 17 16 15 13 12 10 9 7 3 2 2 2 3 4 2 1 3 5 5 5 7 6 3 5 4 3 3 7 7 6 6 4 3 2 3 4 1 3 3 5 1 1 1 4 5 5 5 2 1 4 3 4 5 4 5 5 4 4 2 3 3 3 10 9 10 7 6 3 5 4 6 9 9 9 9 14 24 31 33 37 41 43
20 19 20 19 18 18 16 15 16 14 13 11 10 7 4 2 3 3 6 4 2 1 3 3 3 4 8 6 2 3 2 2 5 8 5 3 3 2 3 3 2 3 3 5 4 5 4 0 2 3 4 5 7 4 2 3 3 5 4 4 4 4 3 4 4 4 1 6 7 5 8 9 8 6 5 6 8 8 7 9 9 10 19 28 33 39 43 44
20 20 19 17 19 19 17 16 15 14 14 12 11 9 5 1 1 4 4 2 1 3 3 3 2 3 5 3 2 4 2 2 5 6 4 3 3 4 4 5 4 1 4 3 3 5 3 4 3 1 3 6 6 4 2 4 4 5 4 4 3 4 4 3 3 0 3 7 3 1 3 6 11 10 9 11 14 12 10 12 12 10 17 27 34 39 42 43
17 17 16 17 19 20 18 17 15 14 14 13 12 7 5 2 6 6 4 3 2 3 1 2 1 3 6 3 2 4 2 3 5 4 3 3 3 5 5 4 6 3 4 3 1 4 4 4 1 1 3 8 9 5 2 2 1 5 4 4 3 1 1 4 4 3 5 6 2 3 3 4 8 8 12 17 19 16 13 17 20 15 16 25 33 39 40 42
14 13 16 20 19 19 20 18 16 15 14 15 11 5 3 5 6 4 7 7 3 1 2 3 3 3 4 3 4 4 3 3 4 5 3 3 2 4 5 5 4 3 2 2 0 3 4 6 3 5 2 7 10 6 5 5 4 4 4 5 4 4 3 4 4 4 7 6 3 2 2 4 4 3 8 12 13 12 12 18 20 18 18 22 28 34 37 41
14 14 17 22 21 20 20 19 19 16 16 17 10 3 6 8 3 3 6 6 2 1 1 2 5 4 2 3 3 3 5 4 2 5 4 4 4 4 5 6 7 5 5 2 2 3 4 7 5 2 0 6 6 3 5 6 3 2 3 4 3 4 5 3 3 4 2 6 5 3 3 6 4 4 5 5 6 8 10 13 12 15 18 20 25 32 36 40
16 18 19 23 23 20 21 21 20 18 19 16 7 6 10 6 3 5 4 4 4 4 3 2 3 4 4 4 3 3 3 2 1 3 4 4 4 5 4 5 8 10 8 5 3 2 2 6 4 2 2 2 2 1 2 3 2 2 3 3 4 4 5 2 3 1 4 3 6 3 6 7 4 6 6 4 4 7 7 8 8 13 17 21 27 33 36 40
18 21 23 25 22 18 21 23 20 20 20 14 7 9 7 4 7 6 3 4 3 5 6 2 3 5 5 3 4 5 2 1 2 3 3 3 3 6 5 5 8 14 14 8 3 4 3 5 3 2 1 1 1 1 3 2 3 5 3 5 3 2 3 3 1 3 2 4 6 3 8 10 5 6 3 3 3 10 10 7 6 10 16 22 28 32 36 40
17 19 25 29 24 18 22 23 20 20 17 9 10 11 4 5 8 7 6 5 3 5 5 5 5 5 6 5 4 4 5 4 4 3 3 3 4 5 6 4 8 13 16 10 3 2 2 3 4 1 1 2 2 1 1 3 2 5 3 2 3 3 1 2 2 3 2 4 7 6 9 12 8 6 5 3 8 12 11 7 7 9 15 21 26 30 34 37
13 14 21 26 23 21 24 22 20 20 13 7 11 10 4 5 8 13 16 9 3 4 4 6 6 3 4 6 4 4 6 6 6 4 4 3 4 5 7 5 5 7 9 9 5 2 3 2 4 1 2 2 2 1 4 2 1 2 0 1 1 3 4 3 3 3 3 3 8 7 9 13 9 6 7 9 11 12 11 9 9 12 18 25 28 30 35 39
12 11 13 14 16 23 26 23 20 17 9 8 10 6 3 4 9 21 27 16 5 5 5 4 5 5 4 5 3 3 5 6 6 5 4 4 4 5 7 7 5 3 2 4 4 1 3 2 4 2 3 1 3 5 8 9 6 3 2 2 2 2 1 1 2 2 3 4 6 4 7 16 10 6 8 10 10 12 12 11 10 14 22 27 29 33 37 41
16 10 10 9 16 28 31 21 15 11 6 7 8 3 2 4 7 15 24 22 13 7 6 5 7 7 5 4 4 4 5 5 6 5 4 5 5 5 10 13 10 8 4 4 2 4 3 3 4 2 2 4 5 3 4 8 8 7 7 7 8 6 3 2 4 4 3 5 5 2 5 17 10 5 6 8 8 10 11 11 11 15 24 28 31 35 39 41
19 9 7 11 20 33 33 16 8 8 6 8 8 5 6 6 5 7 15 19 14 8 5 5 6 7 5 4 5 5 6 4 5 6 5 7 10 7 10 18 18 17 10 3 2 4 3 2 3 4 5 6 4 3 1 2 1 2 5 5 6 7 6 6 8 5 2 5 4 3 4 16 7 6 5 6 6 8 10 13 12 16 26 30 32 36 37 39
24 13 8 13 25 36 27 7 6 8 6 7 8 8 8 6 4 6 10 12 10 7 6 5 5 8 6 5 6 6 6 6 6 8 6 7 11 11 12 21 21 15 8 2 1 3 3 2 3 5 3 2 3 4 3 4 3 2 6 5 7 9 9 8 6 2 2 5 3 3 8 16 4 4 2 2 2 6 9 16 17 17 23 28 31 34 36 38
25 19 14 14 25 35 22 6 7 11 9 7 7 10 11 8 8 9 8 11 11 7 6 7 5 7 8 5 8 8 6 7 7 8 10 8 7 11 18 27 24 13 8 7 7 9 5 2 3 4 5 4 4 3 3 3 1 4 6 5 9 12 9 3 0 1 4 6 7 5 14 17 5 3 1 2 3 4 6 16 20 18 21 27 31 34 36 37
16 14 17 20 32 36 23 9 5 7 11 11 9 10 9 8 13 19 16 15 15 9 5 7 7 9 7 4 6 8 8 10 10 6 9 8 2 5 15 26 26 17 11 12 15 16 8 3 5 7 8 8 7 4 4 3 3 3 4 7 12 15 14 8 2 4 9 8 10 10 17 18 12 3 1 3 6 6 7 12 18 19 21 26 31 34 36 38
14 9 10 18 32 37 30 22 10 2 6 10 7 7 12 12 12 19 21 17 15 12 5 5 7 8 6 5 7 10 12 14 11 5 5 6 3 3 7 17 22 16 8 8 17 16 4 2 9 12 12 13 14 11 5 6 4 5 7 12 14 15 17 12 5 8 10 5 7 17 21 21 24 19 10 9 9 8 8 10 14 19 23 26 31 35 38 40
14 9 8 11 18 25 26 24 16 6 4 9 6 5 14 17 10 10 16 15 15 17 10 5 6 7 8 11 11 11 13 13 13 13 10 5 2 3 1 6 12 12 6 5 14 11 3 4 13 15 17 18 18 15 7 7 7 10 10 13 13 14 15 13 13 18 10 3 10 24 23 20 27 27 20 17 14 9 8 10 14 22 27 30 33 34 36 38
16 12 17 19 11 8 15 22 22 13 7 10 9 6 10 15 13 11 12 10 13 19 12 6 11 18 18 16 11 9 11 12 14 16 12 6 4 2 1 1 5 10 7 4 8 7 3 9 15 12 16 20 19 17 9 6 9 10 12 16 13 13 16 18 23 25 14 9 19 26 23 23 27 25 21 22 17 10 12 18 23 27 29 30 30 31 34 37
22 14 17 26 19 10 17 27 24 15 13 13 9 10 15 19 19 13 7 4 7 16 18 14 18 25 22 15 11 10 13 15 15 14 11 12 11 7 4 4 3 8 8 4 4 4 4 10 12 8 11 18 18 17 10 8 12 12 20 26 14 14 19 23 24 23 19 21 26 26 27 30 29 24 23 26 23 15 17 22 24 25 26 28 30 32 35 38
32 22 16 20 20 18 20 21 16 12 16 17 12 15 19 20 19 12 8 10 11 11 17 23 24 20 17 16 16 18 23 22 17 14 13 13 12 8 7 8 4 4 6 5 2 3 5 8 6 4 6 15 17 12 7 9 12 14 25 31 18 14 19 21 20 19 19 23 26 26 27 27 26 25 24 25 24 17 14 16 19 24 27 30 32 33 35 38
45 34 25 16 10 14 16 11 11 10 10 13 15 18 17 17 20 14 7 15 19 11 12 23 26 15 11 17 23 26 30 25 19 20 18 15 16 13 9 9 9 7 6 6 4 4 6 4 0 4 5 14 11 4 3 4 4 12 28 33 23 17 18 18 18 18 18 21 23 23 21 19 22 24 20 16 14 13 12 13 17 23 28 32 32 33 36 39
48 34 30 24 11 11 13 7 9 11 9 13 19 20 17 15 16 11 6 13 23 22 17 18 19 12 8 16 27 34 37 33 28 27 20 15 18 18 11 8 13 12 8 7 4 4 6 5 3 4 7 11 4 5 5 4 2 12 22 23 21 20 18 18 19 20 22 20 18 18 18 19 21 20 17 14 11 10 13 16 19 23 28 32 34 36 40 42
Wind_Direction
6 7 9 11 14 17 18 19 19 18 17 15 13 9 7 9 9 11 14 17 21 28 31 30 33 51 61 57 59 63 76 85 93 89 74 65 60 55 51 46 39 32 26 22 18 11 7 4 350 348 339 53 41 21 43 37 46 96 104 79 117 159 166 175 181 189 161 168 173 172 174 147 145 150 135 126 122 123 129 135 138 156 156 157 156 154 160 161
0 2 4 7 10 13 16 17 17 17 15 13 12 8 4 4 5 6 6 8 13 19 27 28 26 38 58 74 80 74 90 101 109 96 75 66 60 56 52 48 40 33 25 21 19 9 1 356 346 349 12 84 41 22 36 26 50 89 103 89 188 195 193 195 180 183 155 158 161 154 174 173 173 163 151 141 123 126 117 113 127 137 143 151 154 156 162 163
351 353 356 360 3 6 9 11 13 14 12 11 9 7 3 360 0 1 1 1 4 9 17 25 23 26 47 73 140 131 124 123 124 101 79 67 57 52 48 46 40 34 26 18 11 3 358 358 357 354 24 68 39 17 28 17 34 117 96 84 234 209 196 239 180 179 172 172 156 142 168 187 176 167 162 157 157 160 153 151 149 149 151 154 157 160 164 165
341 345 348 352 354 358 0 3 6 7 7 6 4 4 1 357 356 356 356 355 356 1 6 17 20 19 26 48 92 220 228 221 173 131 92 68 55 47 43 41 35 32 25 17 8 3 357 357 1 4 30 47 18 8 13 8 6 152 117 147 210 173 156 199 177 176 171 172 171 153 149 168 176 177 170 153 148 244 211 185 181 177 167 161 163 164 167 167
335 339 343 346 349 351 353 356 358 1 1 0 359 358 356 354 351 350 352 351 350 353 356 5 13 13 7 10 29 266 263 334 211 169 127 71 55 44 41 39 31 29 23 15 6 5 1 358 8 51 47 26 11 15 2 2 10 16 98 164 168 150 155 187 171 171 174 173 177 164 148 163 175 187 182 168 165 233 217 201 193 186 175 167 166 165 165 167
327 333 338 342 345 347 349 352 354 356 355 354 354 351 350 350 347 344 345 346 345 346 348 354 2 8 360 334 315 271 248 294 216 184 164 93 52 39 39 36 31 27 19 12 7 12 10 6 22 64 42 24 12 15 356 355 3 359 342 125 163 166 173 181 176 179 181 176 176 176 172 163 162 190 192 185 201 253 225 203 185 178 174 167 165 163 165 169
320 326 333 337 342 345 347 350 351 353 352 352 349 345 344 345 343 337 337 341 340 340 340 343 350 358 352 325 292 268 266 263 213 192 190 156 45 25 32 31 29 25 15 8 13 22 14 11 30 55 46 37 13 359 340 338 349 53 315 113 165 197 190 180 183 186 187 183 182 183 182 172 167 179 189 197 233 256 212 190 176 170 167 165 164 164 168 172
313 319 325 331 336 340 343 346 349 352 351 351 348 344 341 339 338 332 330 333 334 335 332 333 340 346 344 320 289 272 264 250 212 201 203 203 252 4 17 24 26 17 11 4 16 25 17 17 31 40 51 67 4 350 348 339 346 73 275 286 142 183 195 190 191 188 187 181 179 179 188 192 183 174 177 199 222 196 182 174 168 167 165 168 170 169 172 172
308 313 319 324 328 333 337 340 344 348 350 350 349 344 338 336 334 328 325 327 328 328 325 324 327 333 336 312 281 277 263 239 223 217 212 228 247 325 348 13 20 3 7 360 8 21 19 26 29 25 66 124 16 344 2 7 335 301 261 314 317 193 176 195 196 186 178 172 166 170 230 227 170 165 174 185 181 173 172 168 166 168 169 171 174 176 177 176
302 308 314 319 323 328 330 334 338 342 347 348 348 345 338 334 330 325 320 321 323 323 321 318 317 324 327 301 250 256 271 238 224 225 222 234 246 285 312 353 5 347 358 352 351 14 16 24 23 24 76 101 29 344 350 19 317 309 296 312 295 292 299 209 200 192 177 171 176 175 256 225 156 167 224 178 169 168 166 164 168 172 173 174 177 178 178 178
298 303 310 314 319 323 325 330 333 337 342 344 346 345 337 332 327 321 316 316 317 317 316 312 309 313 314 283 227 229 273 240 223 229 229 234 241 261 292 319 345 332 340 342 335 355 6 18 17 18 67 8 359 345 353 350 320 318 323 314 295 316 311 235 201 194 180 174 193 171 117 129 156 220 227 179 169 170 169 166 171 176 177 177 178 178 176 176
295 300 306 312 316 319 322 325 328 333 337 340 343 343 337 329 323 317 312 311 310 309 310 308 299 306 308 269 242 250 267 240 225 229 225 230 237 250 280 283 307 314 319 330 322 340 355 8 12 9 5 232 346 36 22 348 329 324 356 327 303 348 334 261 209 192 185 180 179 146 8 256 208 240 209 179 172 171 172 170 173 177 178 178 177 176 174 174
294 299 304 309 312 315 318 321 325 329 332 336 339 341 337 327 322 317 309 306 303 303 307 302 290 301 299 262 257 259 250 237 232 229 221 228 238 249 267 265 283 294 301 315 293 332 348 360 11 8 86 150 111 91 337 341 347 327 20 16 322 355 336 292 17 178 180 183 171 144 295 252 226 226 182 176 175 171 174 175 176 178 178 177 176 176 176 176
290 295 301 305 309 311 314 318 321 324 329 332 334 338 336 325 321 314 305 300 297 302 305 297 292 298 282 260 272 259 242 240 235 228 223 230 240 249 259 256 270 279 291 300 269 318 343 8 17 12 93 85 127 145 345 356 21 348 351 31 13 356 292 303 355 156 156 201 181 161 267 253 247 230 183 180 181 176 178 180 180 181 180 180 179 179 180 180
285 290 296 300 304 307 310 314 317 321 325 328 330 335 334 324 320 313 300 291 293 297 295 293 291 283 268 263 269 257 245 241 233 229 227 232 240 247 253 250 261 271 281 276 244 301 343 9 32 32 70 59 65 76 15 355 11 24 355 320 345 11 275 306 309 183 182 220 180 169 255 267 270 229 189 184 185 182 184 186 186 187 185 185 183 183 184 184
282 286 290 295 300 303 307 310 313 317 320 325 327 331 332 322 319 311 290 287 290 283 279 292 284 260 257 266 263 255 248 238 230 230 229 234 240 246 250 248 260 265 271 266 234 265 334 12 59 47 40 69 84 73 44 4 345 6 46 258 279 267 296 317 316 233 217 216 200 195 245 270 296 210 186 184 187 187 189 191 191 192 191 189 189 188 188 188
280 282 286 291 295 299 303 306 310 313 316 322 323 327 331 321 315 303 289 288 276 266 280 283 266 249 255 256 256 254 248 235 226 226 229 235 239 244 246 246 256 258 262 252 216 229 328 44 88 34 41 58 81 79 42 351 314 325 10 257 250 239 266 298 309 313 27 158 243 228 241 256 271 157 181 187 189 192 195 197 196 196 195 194 194 193 193 194
278 281 284 286 290 295 299 302 307 310 313 319 322 327 329 321 308 298 291 278 250 263 286 257 216 240 260 240 234 247 242 223 218 220 224 233 236 237 241 247 252 248 251 227 203 205 317 2 80 44 21 12 36 85 99 252 211 239 271 274 285 263 232 247 274 304 41 249 251 230 253 262 265 175 187 194 192 197 203 203 201 199 198 198 198 198 199 201
274 277 280 283 286 290 294 299 304 306 310 315 321 325 327 321 310 299 275 232 228 266 279 224 196 197 260 237 231 244 234 210 213 222 228 237 239 236 238 244 243 231 205 186 205 169 44 35 55 14 317 291 256 147 184 210 184 200 224 217 254 273 259 234 237 266 283 274 263 240 247 264 268 232 197 199 198 203 210 208 206 205 202 201 201 203 203 205
269 271 274 278 281 286 291 296 299 304 308 313 324 333 336 334 326 312 252 233 251 266 268 248 227 237 260 265 254 246 236 227 233 238 242 244 236 232 233 232 228 217 194 176 215 43 84 68 250 231 234 238 234 195 175 172 160 174 197 219 237 242 272 262 239 281 279 229 263 243 238 262 265 259 217 201 200 205 213 212 211 209 206 205 205 206 207 209
265 267 269 272 275 280 285 290 295 300 305 313 330 343 351 347 333 311 297 276 263 264 266 260 246 247 256 263 257 248 243 246 247 241 241 236 221 216 220 215 183 194 246 143 152 58 79 107 241 227 221 222 220 178 140 126 137 157 198 247 270 221 257 276 271 298 290 185 267 254 242 259 260 264 233 192 193 208 210 210 213 211 210 210 208 208 209 210
262 263 265 267 269 274 278 285 290 294 301 310 326 338 334 332 320 305 310 294 278 272 266 259 253 252 254 256 255 252 247 247 243 229 220 214 206 207 207 183 152 194 258 92 111 7 29 248 251 236 194 140 104 122 125 133 138 140 158 222 282 236 262 291 302 326 9 176 269 277 260 259 262 268 243 187 197 214 213 212 214 212 210 211 211 210 210 208
260 260 262 263 265 270 273 279 284 288 294 301 313 320 317 322 320 317 314 289 285 282 266 256 253 253 253 254 253 246 231 225 230 220 208 202 202 205 199 170 158 174 122 160 170 154 269 247 246 204 144 129 90 80 112 96 142 169 162 188 266 266 286 283 301 335 333 235 269 288 277 261 260 268 257 203 207 219 220 219 220 217 215 214 214 213 211 207
257 257 258 260 262 265 270 275 278 282 286 290 298 297 303 313 317 324 319 283 283 282 262 253 247 247 245 240 238 228 219 219 223 210 201 199 195 198 204 173 143 164 229 197 171 187 239 243 162 117 124 144 143 56 137 173 282 241 197 201 243 260 233 235 286 336 319 297 304 317 298 269 234 254 266 221 212 226 226 222 224 224 222 220 218 217 214 210
254 254 255 257 259 262 266 271 272 275 278 278 281 279 294 306 314 332 332 304 287 280 255 243 240 241 226 210 205 197 207 225 222 206 198 198 191 181 190 169 158 212 221 174 153 222 262 252 143 125 102 131 148 216 197 179 247 297 231 209 227 246 248 261 321 352 339 325 342 16 323 280 238 249 265 264 209 235 227 220 224 224 222 220 220 219 215 213
250 250 252 253 255 258 258 264 266 266 266 261 263 268 285 298 317 337 349 35 299 267 198 199 213 207 198 197 182 162 187 247 216 204 194 195 196 182 162 163 168 222 191 150 147 237 259 31 109 132 137 134 155 238 233 170 143 304 251 199 205 220 248 278 340 6 291 269 285 71 315 274 284 250 259 244 221 242 230 223 229 224 219 218 220 220 215 212
251 248 249 249 250 251 249 252 254 252 250 248 251 257 273 288 316 348 9 19 280 226 155 176 184 179 192 193 173 158 204 222 178 194 192 191 198 191 199 203 143 227 180 134 277 253 163 89 56 100 122 137 171 240 228 158 135 243 236 134 123 127 164 209 129 240 246 281 280 176 167 269 272 245 263 251 234 256 247 235 235 225 220 221 222 220 215 214
254 250 245 243 244 244 240 242 246 244 238 238 245 250 265 281 292 18 59 310 268 153 136 175 164 177 192 184 183 179 145 143 145 194 193 188 195 187 216 220 180 202 180 140 231 260 145 159 189 152 131 183 203 225 192 158 156 241 208 115 97 104 132 148 117 261 292 7 292 231 149 258 274 240 294 343 233 258 256 241 235 223 221 223 222 220 216 215
253 249 244 236 236 238 235 236 239 237 234 236 240 246 254 254 280 57 94 239 258 116 142 173 160 184 175 160 194 212 203 162 153 184 182 183 193 180 212 216 170 169 184 150 221 259 121 179 199 159 160 215 215 225 179 166 193 208 141 92 59 63 68 61 67 298 29 15 268 249 154 221 275 212 154 22 235 247 253 247 237 225 224 224 221 218 216 214
251 248 243 232 229 232 231 231 232 231 228 226 226 230 238 203 118 95 213 238 251 129 125 162 178 176 154 139 216 234 205 214 163 148 160 172 189 179 137 152 110 119 357 345 268 264 323 69 178 169 189 190 143 89 125 147 155 130 93 51 25 30 44 39 48 70 46 266 259 240 176 191 275 240 176 199 218 222 235 249 244 228 224 223 219 217 215 213
251 245 242 232 225 227 226 223 225 223 217 215 216 209 189 133 96 154 218 238 278 218 123 173 201 143 151 154 194 206 178 220 179 155 160 156 164 146 121 131 72 75 2 332 296 304 335 31 242 226 187 136 104 78 45 57 95 103 74 50 14 342 11 16 0 47 58 252 263 242 184 193 240 246 215 229 238 225 222 241 240 222 218 216 216 217 215 212
253 244 244 234 223 224 221 217 219 216 210 206 204 192 159 146 214 195 223 323 324 213 169 182 207 156 166 159 181 193 171 203 185 167 168 158 173 190 180 186 172 56 316 263 273 327 301 231 252 321 192 165 123 80 24 359 42 93 89 76 44 335 354 344 305 43 230 244 254 124 159 223 242 244 245 252 256 244 227 236 242 228 215 212 213 216 214 211
246 239 245 238 226 222 218 215 214 207 204 196 187 165 119 189 230 196 202 254 228 212 153 123 117 133 143 143 232 206 168 208 188 173 173 146 185 233 243 219 172 193 258 213 302 324 291 293 288 132 244 191 164 148 193 260 135 148 146 126 131 111 358 285 266 268 272 264 241 117 126 262 271 257 232 233 248 253 243 243 249 246 228 220 218 216 213 210
233 229 244 243 232 220 213 211 206 200 196 185 170 133 130 220 234 198 207 225 235 358 49 93 88 101 137 177 236 198 176 230 173 152 173 138 171 237 240 232 185 152 153 152 216 203 244 295 218 179 218 182 181 182 161 144 141 174 155 134 152 151 177 243 241 253 288 300 263 152 143 236 254 270 222 226 256 274 266 255 253 250 240 232 223 215 211 208
219 222 241 249 239 218 207 205 200 195 189 178 159 146 204 214 209 193 214 219 231 335 19 47 89 113 228 257 271 221 204 236 154 135 177 173 185 208 194 204 196 154 127 166 244 169 211 265 247 228 22 159 181 197 131 116 114 194 127 114 181 180 172 216 228 213 301 320 278 200 217 228 227 270 238 227 280 285 274 267 252 237 230 222 215 210 208 207
221 220 232 245 241 218 203 201 195 193 187 172 160 216 217 212 176 190 203 176 180 153 115 24 87 138 250 272 274 246 203 217 149 148 207 209 209 209 202 215 194 176 166 170 206 181 206 273 283 3 359 124 146 233 140 137 172 164 138 181 215 174 136 158 272 338 68 300 274 232 258 276 309 282 232 177 272 274 273 273 236 218 213 206 208 208 206 205
233 228 233 240 237 216 203 198 191 193 187 170 196 224 212 206 194 189 179 150 157 136 132 185 204 182 218 241 231 218 182 199 183 171 210 233 229 195 200 243 198 186 191 182 206 220 199 270 274 129 195 256 55 42 30 29 124 128 177 217 190 119 99 114 266 332 56 255 269 255 266 279 293 282 279 95 260 259 252 247 223 210 205 204 209 208 205 205
240 236 242 242 233 212 201 196 188 189 181 175 228 233 209 207 202 185 180 168 128 113 142 206 217 184 191 210 230 200 173 187 181 175 200 225 244 182 160 218 201 194 201 187 198 256 153 260 282 103 205 280 17 66 36 353 67 127 185 223 125 148 182 111 162 240 210 246 270 278 283 276 247 242 278 238 221 240 242 221 204 209 208 210 211 207 204 203
238 236 250 249 232 208 196 191 187 185 178 192 230 231 208 203 210 206 204 195 145 141 177 218 217 194 179 183 197 186 185 194 173 176 201 199 234 200 167 197 193 195 203 174 177 235 120 216 275 327 286 304 26 164 187 221 17 87 118 351 64 179 180 161 171 193 182 231 270 293 308 287 253 201 231 233 211 223 230 208 201 211 212 211 208 203 202 200
220 227 255 251 215 195 187 182 184 185 191 217 221 216 186 199 220 218 215 210 191 187 204 209 199 214 206 180 188 180 192 210 183 185 219 199 223 232 202 193 153 152 181 128 155 197 105 196 248 324 332 261 191 204 192 183 174 167 203 223 224 188 142 227 213 167 183 229 260 282 292 281 270 168 199 223 207 216 219 204 204 215 216 213 208 204 202 201
208 229 254 219 184 180 175 173 187 193 209 235 228 207 185 214 226 224 222 221 221 222 211 187 191 206 191 175 205 186 184 213 191 192 234 212 219 244 208 191 158 139 123 77 158 199 153 189 206 175 227 217 216 232 206 195 183 178 195 199 201 189 158 250 253 216 198 230 237 181 269 275 273 145 192 212 197 217 214 197 203 215 215 213 210 208 205 202
203 228 243 189 180 176 169 170 205 200 214 231 223 211 205 219 223 215 220 221 226 238 228 213 207 204 189 183 196 182 180 206 196 199 236 221 215 223 198 186 168 153 153 142 194 187 131 132 198 220 221 219 248 303 334 263 242 209 217 193 188 189 172 201 235 225 182 235 236 101 271 270 258 135 186 202 201 229 207 192 204 215 215 212 209 209 206 204
206 216 214 183 184 179 171 187 227 202 230 234 224 228 216 218 220 200 206 210 214 220 222 228 203 198 219 207 188 193 193 203 200 194 222 237 223 220 192 179 171 157 153 163 158 135 107 119 217 259 301 355 332 334 7 22 34 259 245 191 182 207 201 204 221 179 156 221 188 110 253 261 267 102 198 217 251 263 206 196 207 212 213 212 209 208 206 205
211 217 218 195 185 182 181 211 213 205 228 225 226 236 225 229 227 206 194 196 199 194 205 223 198 199 225 202 192 209 193 203 221 202 213 235 224 211 194 182 178 174 183 194 173 162 173 176 182 247 296 318 331 340 335 331 256 230 240 197 204 221 213 211 36 135 248 220 165 183 251 258 270 72 40 318 278 271 220 210 215 213 209 210 209 208 207 205
204 216 220 203 191 192 203 226 202 203 219 215 227 235 229 249 236 220 214 207 204 191 188 223 207 199 209 174 194 217 196 211 234 218 216 232 236 214 200 192 190 191 204 201 169 161 177 189 173 204 238 244 251 240 210 221 210 224 240 210 213 216 208 211 214 219 242 216 171 209 250 262 268 238 131 282 258 249 240 226 224 222 217 212 209 209 207 204
184 197 206 193 191 202 220 232 227 222 208 204 222 228 220 238 243 224 218 216 214 204 204 233 205 191 195 170 195 221 218 222 231 231 224 214 224 254 207 203 206 204 216 196 165 157 151 213 201 211 220 228 245 243 185 133 159 202 218 213 212 212 209 210 220 231 234 207 200 233 245 262 271 266 260 260 247 233 235 230 223 222 220 216 213 210 208 205
186 204 192 172 187 208 223 228 226 231 189 178 185 213 217 225 244 229 213 210 207 203 218 251 196 189 205 195 199 221 223 224 227 232 233 207 214 298 238 216 224 221 228 187 170 161 104 229 220 222 227 234 248 249 196 144 207 224 222 219 210 206 206 201 216 228 220 153 244 246 246 256 265 268 271 268 256 238 227 222 218 220 219 217 215 211 207 203
200 219 202 188 184 197 213 216 214 211 199 190 199 229 229 224 226 218 205 199 192 193 205 237 213 214 214 199 198 222 224 229 233 231 232 224 216 237 235 254 227 214 208 182 190 172 130 236 232 224 235 244 252 253 231 201 241 249 248 243 215 190 202 206 218 227 216 213 246 253 257 260 261 267 272 270 267 252 234 232 228 227 223 215 210 206 201 199
210 224 204 199 204 205 210 213 208 199 206 211 215 232 235 231 225 212 178 160 198 200 202 216 222 220 217 202 197 216 222 225 228 222 217 223 219 206 221 254 224 197 187 172 213 182 154 241 240 214 240 252 250 251 245 238 256 265 262 257 231 189 208 217 223 229 226 232 246 258 265 265 266 270 269 270 275 269 250 241 230 223 218 208 205 203 199 199
214 219 197 192 211 221 218 214 201 196 212 213 222 234 233 236 233 217 170 180 205 204 201 218 230 220 206 204 208 222 226 222 224 222 205 208 217 207 213 225 180 156 190 184 204 205 196 237 240 167 239 258 253 248 229 230 251 261 263 262 247 213 223 229 231 233 233 241 248 254 261 265 268 269 267 273 278 269 248 234 220 216 212 206 204 202 199 199
219 222 211 198 215 220 214 205 186 197 214 206 219 233 233 237 235 228 214 214 221 218 194 214 232 227 200 208 216 227 232 226 229 233 216 204 212 211 214 205 161 148 193 187 166 189 200 229 226 127 226 256 257 234 184 213 264 263 261 261 251 233 232 235 236 231 228 239 248 250 255 259 263 267 270 275 268 246 233 225 216 214 211 206 203 201 199 200
219 224 219 216 225 207 201 201 186 200 216 205 215 229 230 236 236 228 241 236 230 234 224 215 226 227 209 216 221 228 234 233 237 244 243 236 229 229 235 207 176 171 175 171 174 183 180 201 202 159 224 257 257 111 114 73 4 264 259 254 244 236 234 238 245 240 230 232 241 247 248 250 257 266 273 272 252 228 231 227 216 213 211 208 206 204 202 203